Location: G�migny
(47.9646°N, 1.6950°E)
Time: 19:51:12
(UTC+00:00)

YAOGAN 6 - Pass Details

Date: 23 October 2019
Orbit: 465 x 506 km, 97.0° (Epoch: 17 November)

Event Time Altitude Azimuth Distance (km) Brightness Sun altitude
Rises 18:11:16 0° 171° (S) 2,572 6.2 -14.1°
Reaches altitude 10° 18:13:21 10° 173° (S) 1,689 5.2 -14.5°
Maximum altitude 18:16:59 72° 258° (WSW) 522 2.8 -15.1°
Drops below altitude 10° 18:20:36 10° 344° (NNW) 1,681 5.5 -15.7°
Sets 18:22:40 0° 346° (NNW) 2,559 6.4 -16.0°
